Tracking 19245 objects as of 18-Aug-2018
HD Live streaming from Space Station
objects crossing your sky now

IRS P6

Track IRS P6 now!
10-day predictions
IRS P6 is classified as:


NORAD ID: 28051
Int'l Code: 2003-046A
Perigee: 744.2 km
Apogee: 826.0 km
Inclination: 98.6 °
Period: 100.4 minutes
Semi major axis: 7156 km
RCS: 5.9386 m2 (large)
Launch date: October 17, 2003
Source: India (IND)
Launch site: SRIHARIKOTA (SRI)

Monitor agricultural, land, and water resources.
aabbcc
Your satellite tracking list
Your tracking list is empty




NASA's NSSDC Master Catalog

Two Line Element Set (TLE):
1 28051U 03046A   18230.42623930 -.00000567  00000-0 -18356-3 0  9998
2 28051  98.5509 307.0050 0057217 209.3397 150.4602 14.34130441770494
Source of the keplerian elements: AFSPC